Regional Weather Roundup
Issued by NWS

Home | Current Version | Previous Version | Text Only | Print | Product List | Glossary Off
Versions: 1 2 3 4 5 6 7 8 9 10 11 12 13 14 15 16 17 18 19 20 21 22 23 24 25 26 27 28 29 30 31 32 33 34 35 36 37 38 39 40 41 42 43 44 45 46 47 48 49 50

000
ASUS43 KMPX 120001
RWRMN
WEATHER ROUNDUP FOR MINNESOTA
NATIONAL WEATHER SERVICE TWIN CITIES/CHANHASSEN MN
700 PM CDT FRI JUL 11 2014


NOTE: "FAIR" INDICATES FEW OR NO CLOUDS BELOW 12,000 FEET WITH NO
SIGNIFICANT WEATHER AND/OR OBSTRUCTIONS TO VISIBILITY. N/A MEANS
CURRENT SKY AND/OR WEATHER CONDITIONS ARE NOT AVAILABLE.

MNZ060>063-068>070-120100-
   Twin Cities Metro

CITY           SKY/WX    TMP DP  RH WIND       PRES   REMARKS
TWIN CITIES    CLOUDY    79  69  71 S3        29.96S
6HR MIN TEMP:  74; 6HR MAX TEMP:  81;

ST PAUL        CLOUDY    77  71  82 SE3       29.96S
CRYSTAL        CLOUDY    80  69  69 SW5       29.95S
BLAINE         CLOUDY    81  72  74 SW6       29.96S
LAKEVILLE      CLOUDY    77  70  78 S3        29.97S
EDEN PRAIRIE   CLOUDY    79  71  76 CALM      29.96R
6HR MIN TEMP:  75; 6HR MAX TEMP:  80;

SOUTH ST PAUL  CLOUDY    78  70  76 CALM      29.96S
LAKE ELMO      CLOUDY    75  70  83 S5        29.98S
$$
MNZ001>005-007-008-013>017-022>024-027-028-120100-
   Northwest Minnesota

CITY           SKY/WX    TMP DP  RH WIND       PRES   REMARKS
BEMIDJI        SUNNY     80  56  43 W9        29.94R
HALLOCK        SUNNY     79  48  34 NW18      29.91S
ROSEAU         SUNNY     79  55  44 NW16      29.90R
WARROAD        SUNNY     79  54  41 W12G20    29.90R
THIEF RVR FALL SUNNY     81  52  36 NW13      29.93S
CROOKSTON      SUNNY     81  61  50 NW10      29.93S
FOSSTON        SUNNY     81  54  39 W8        29.95S
MOORHEAD       SUNNY     84  61  45 N9        29.94R
PARK RAPIDS    SUNNY     81  61  50 NW9       29.94R
$$
MNZ006-009>011-018-025>026-120100-
   North Central Minnesota

CITY           SKY/WX    TMP DP  RH WIND       PRES   REMARKS
BAUDETTE       SUNNY     80  52  37 W9G22     29.89R
FLAG ISLAND    SUNNY     75  55  50 NW18      29.87R
INTL FALLS     SUNNY     79  56  45 W7        29.88R
6HR MIN TEMP:  68; 6HR MAX TEMP:  82; 6HR PCP:  0.25;

BIG FORK       SUNNY    N/A N/A N/A W6        29.91R
LONGVILLE      SUNNY     81  66  61 W5        29.93R
GRAND RAPIDS   MOSUNNY   82  64  54 W9        29.92R
CRANE LAKE     MOSUNNY   72  66  83 CALM      29.90S
ORR            MOSUNNY   75  66  73 CALM      29.87S
COOK           MOSUNNY   72  63  73 SE6       29.90S
$$
MNZ012-019>021-037-120100-
   Northeast Minnesota

CITY           SKY/WX    TMP DP  RH WIND       PRES   REMARKS
DULUTH         PTSUNNY   74  67  78 SW8       29.95R
6HR MIN TEMP:  69; 6HR MAX TEMP:  74; 6HR PCP: TRACE;

ELY            PTSUNNY   68  59  73 SW7       29.90F
HIBBING        MOSUNNY   75  62  64 S9        29.91R THUNDER
EVELETH        MOSUNNY   77  68  73 SW10      29.92S
DULUTH HARBOR  SUNNY     75  70  83 SW12      29.93R
TWO HARBORS    PTSUNNY   72  66  83 SW8       29.92S
SILVER BAY     MOSUNNY   70  70 100 S7        29.91S
GRAND MARAIS     N/A     50  49  96 E3        29.92S
G MARAIS ARPRT FOG       64  61  88 SW5       29.96R VSB 1/4
$$
MNZ029>031-032-039>041-046>048-054>057-064-120100-
   West Central Minnesota

CITY           SKY/WX    TMP DP  RH WIND       PRES   REMARKS
FERGUS FALLS   SUNNY     84  61  45 N5        29.93S
WHEATON        SUNNY     82  66  57 N6        29.95R
MORRIS         SUNNY     86  70  58 N6        29.93S HX  90
ALEXANDRIA     MOSUNNY   84  68  58 NW9       29.97R
ELBOW LAKE     FAIR      82  68  61 VRB9      29.94R
WADENA         SUNNY     81  64  57 NW8       29.94S
GLENWOOD       MOSUNNY   84  72  65 CALM      29.96R
APPLETON       SUNNY     88  70  55 CALM      29.93S HX  92
BENSON         MOSUNNY   86  70  58 CALM      29.94R HX  90
ORTONVILLE     SUNNY     88  66  48 N6        29.93S HX  90
MADISON        MOSUNNY   88  72  58 CALM      29.94R HX  94
WILLMAR        FAIR      84  68  58 CALM      29.96S
$$
MNZ033>034-036-042>043-049>051-058-059-120100-
   Central Minnesota

CITY           SKY/WX    TMP DP  RH WIND       PRES   REMARKS
ST CLOUD       SUNNY     82  71  69 S7        29.94S
6HR MIN TEMP:  73; 6HR MAX TEMP:  83;

SAUK CENTRE    FAIR      82  71  68 W3        29.95R
PAYNESVILLE    PTSUNNY   78  70  74 SE3       29.96R
AITKIN         MOSUNNY   81  72  74 S5        29.92S
PINE RIVER     SUNNY     82  66  57 NW6       29.96R
BRAINERD       MOSUNNY   85  71  63 SW8       29.93R HX  90
STAPLES        MOSUNNY   82  64  54 NW8       29.94R
LONG PRAIRIE   FAIR      82  68  61 W5        29.95S
LITTLE FALLS   SUNNY     81  70  69 S6        29.94S
LITCHFIELD     MOSUNNY   82  75  78 CALM      29.95F
BUFFALO        SUNNY     80  70  71 SW5       29.97R
MAPLE LAKE     MOSUNNY   82  73  74 CALM      29.97R
$$
MNZ037-044-045-052-053-120100-
   East Central Minnesota

CITY           SKY/WX    TMP DP  RH WIND       PRES   REMARKS
PRINCETON      MOSUNNY   81  72  74 S5        29.95S
MORA           MOSUNNY   75  68  78 S3        29.97R
CAMBRIDGE      SUNNY     81  68  65 SW6       29.94S
RUSH CITY      CLOUDY    76  69  79 S3        29.96S
MOOSE LAKE     MOSUNNY   75  68  78 S8        29.93R
HINCKLEY       CLOUDY    75  70  83 SW6       29.96R
CLOQUET        PTSUNNY   73  68  83 CALM      29.95R
MCGREGOR       PTSUNNY   77  70  78 SW7       29.95R
$$
MNZ071>073-080-081-089-090-097-098-120100-
   Southwest Minnesota

CITY           SKY/WX    TMP DP  RH WIND       PRES   REMARKS
MONTEVIDEO     SUNNY     88  70  55 CALM      29.95R HX  92
GRANITE FALLS  SUNNY     86  67  52 CALM      29.96R
CANBY          SUNNY     87  67  50 CALM      29.95S HX  90
MARSHALL       SUNNY     86  72  62 SW7       29.95R HX  92
REDWOOD FALLS  MOSUNNY   84  72  67 SW7       29.95R
OLIVIA         PTSUNNY   82  70  65 SE6       29.95S
PIPESTONE      MOSUNNY   82  72  69 SW6       29.99S
WINDOM         MOSUNNY   81  70  69 SW7       29.99R
WORTHINGTON    MOSUNNY   79  72  78 S9        30.01S
JACKSON        CLOUDY    79  68  69 S8        30.00S
TRACY          MOSUNNY   85  71  64 SW6       29.97S HX  90
SLAYTON        MOSUNNY   82  70  66 CALM      29.99F
$$
MNZ065>067-074>077-082>085-091>093-120100-
   South Central Minnesota

CITY           SKY/WX    TMP DP  RH WIND       PRES   REMARKS
MANKATO        CLOUDY    81  68  65 S9        29.97R
NEW ULM        SUNNY     81  72  74 CALM      29.96R
ST JAMES       MOSUNNY   84  68  58 SW6       29.97S
FAIRMONT       CLOUDY    81  66  61 SW9       29.98S
GLENCOE        MOSUNNY   82  70  66 CALM      29.96R
FARIBAULT      PTSUNNY   82  64  54 S7        29.98S
OWATONNA       PTSUNNY   79  66  65 S8        29.99S
WASECA         CLOUDY    77  63  61 S8        30.00S
ALBERT LEA     SUNNY     79  66  65 S9        30.00S
$$
MNZ078>079-086>088-094>096-120100-
   Southeast Minnesota

CITY           SKY/WX    TMP DP  RH WIND       PRES   REMARKS
ROCHESTER      CLOUDY    75  66  73 S7        30.04R
6HR MIN TEMP:  68; 6HR MAX TEMP:  77;

RED WING       CLOUDY    79  66  65 S3        29.97R
STANTON        CLOUDY    78  68  70 S6        29.96S
DODGE CENTER   CLOUDY    75  68  78 S13       30.01S
WINONA         CLOUDY    77  64  65 SW5       30.02R
AUSTIN         PTSUNNY   75  66  73 S8        30.01S
PRESTON        CLOUDY    75  66  74 S13       30.04S
$$
ABBREVIATIONS USED IN REMARKS
   TC - TEMPERATURES IN CELSIUS
  WCI - WIND CHILL INDEX
   HX - HEAT INDEX
  VSB - VISIBILITY
$$


USA.gov is the U.S. government's official web portal to all federal, state and local government web resources and services.